Regional Weather Roundup
Issued by NWS

Home | Current Version | Previous Version | Graphics & Text | Print | Product List | Glossary On
Versions: 1 2 3 4 5 6 7 8 9 10 11 12 13 14 15 16 17 18 19 20 21 22 23 24 25 26 27 28 29 30 31 32 33 34 35 36 37 38 39 40 41 42 43 44 45 46 47 48 49 50
000
ASUS45 KBOI 290210
RWRID

IDAHO REGIONAL WEATHER ROUNDUP
NATIONAL WEATHER SERVICE BOISE ID
800 PM MDT THU MAY 28 2015

NOTE: "FAIR" INDICATES FEW OR NO CLOUDS BELOW 12000 FEET
WITH NO SIGNIFICANT WEATHER AND/OR OBSTRUCTIONS TO VISIBILITY

IDZ012-014-290300-
SOUTHWEST IDAHO


CITY           SKY/WX    TMP DP  RH WIND       PRES   REMARKS
BOISE          SUNNY     76  41  28 W10       30.02S
CALDWELL       SUNNY     77  39  25 W3        30.02S
MOUNTAIN HOME  SUNNY     78  35  21 NW12      30.01S
$$

IDZ016-017-290300-
SOUTHCENTRAL IDAHO


CITY           SKY/WX    TMP DP  RH WIND       PRES   REMARKS
BURLEY         CLEAR     66  42  41 SW8       30.08R
JEROME         SUNNY     71  37  28 SW6       30.08S
TWIN FALLS     SUNNY     71  40  32 SW3       30.07R
$$

IDZ019>023-290300-
SOUTHEAST IDAHO


CITY           SKY/WX    TMP DP  RH WIND       PRES   REMARKS
IDAHO FALLS    CLOUDY    60  47  61 NE7       30.16R
POCATELLO      PTCLDY    59  48  67 E9        30.14S
REXBURG        MOCLDY    57  45  64 E6        30.17R
$$

IDZ006-010-011-018-031-032-290300-
CENTRAL IDAHO MOUNTAINS


CITY           SKY/WX    TMP DP  RH WIND       PRES   REMARKS
MCCALL         SUNNY     67  38  34 W8        30.10S
HAILEY         MOSUNNY   59  48  67 CALM      30.14R
STANLEY          N/A     59  39  47 NW3       30.19R
SALMON         CLOUDY    61  45  55 N7        30.15S
CHALLIS        MOSUNNY   63  44  50 N7        30.15R
$$

IDZ002-004-006-007-026-290300-
NORTHERN IDAHO


CITY           SKY/WX    TMP DP  RH WIND       PRES   REMARKS
LEWISTON       SUNNY     80  46  30 NE9       30.01S
LOWELL           N/A     69  51  52 VRB7      30.06R
COEUR D`ALENE  PTSUNNY   64  46  52 E15G28    30.07R
MULLAN PASS    CLOUDY    50  46  86 CALM      30.24R
$$



USA.gov is the U.S. government's official web portal to all federal, state and local government web resources and services.